Location: Unspecified
(0.0000°N, 0.0000°E)
Time: 14:05:25
(UTC+00:00)

Courier 1B Rocket - All Passes

Search period start: 01 August 2021 00:00
Search period end: 11 August 2021 00:00
Orbit: 920 x 1202 km, 28.2° (Epoch: 31 July)

Date Brightness Start Highest point End Pass type
(mag) Time Alt. Az. Time Alt. Az. Time Alt. Az.
01 Aug - 06:59:55 10° NNW 07:03:47 17° NNE 07:07:42 10° ENE daylight
01 Aug - 08:51:11 10° NW 08:57:26 63° NNE 09:04:03 10° ESE daylight
01 Aug - 10:45:04 10° W 10:51:01 36° SSW 10:57:21 10° SE daylight
01 Aug - 12:43:00 10° SW 12:45:31 12° SSW 12:48:05 10° S daylight
01 Aug - 18:28:09 10° SSW 18:33:23 19° SSE 18:38:34 10° ESE visible
01 Aug - 20:20:08 10° SW 20:27:46 56° SSE 20:35:03 10° ENE visible
01 Aug - 22:14:21 10° WSW 22:21:35 46° NNW 22:28:23 10° NE visible
02 Aug - 00:12:14 10° NW 00:15:41 14° NNW 00:19:03 10° N night (unlit)
02 Aug - 06:00:58 10° N 06:02:27 11° NNE 06:03:55 10° NE daylight
02 Aug - 07:50:35 10° NW 07:56:24 40° NNE 08:02:24 10° E daylight
02 Aug - 09:43:37 10° WNW 09:49:50 54° SSW 09:56:27 10° SE daylight
02 Aug - 11:39:49 10° WSW 11:43:55 17° SSW 11:48:10 10° SSE daylight
02 Aug - 17:28:05 10° S 17:31:39 13° SSE 17:35:13 10° SE daylight
02 Aug - 19:19:09 10° SW 19:26:21 39° SSE 19:33:22 10° E visible
02 Aug - 21:12:34 10° WSW 21:20:17 69° NNW 21:27:36 10° NE visible
02 Aug - 23:08:51 10° WNW 23:14:14 21° NNW 23:19:23 10° NNE night (unlit)
03 Aug - 06:50:13 10° NNW 06:55:17 26° NNE 07:00:26 10° E daylight
03 Aug - 08:42:28 10° WNW 08:48:46 82° SSW 08:55:22 10° ESE daylight
03 Aug - 10:37:27 10° WSW 10:42:29 23° SSW 10:47:47 10° SSE daylight
03 Aug - 18:18:25 10° SSW 18:24:51 27° SSE 18:31:14 10° E visible
03 Aug - 20:11:05 10° WSW 20:18:59 83° SSE 20:26:32 10° ENE visible
03 Aug - 22:06:14 10° W 22:12:51 31° NNW 22:19:08 10° NNE visible
04 Aug - 05:50:09 10° NNW 05:54:05 17° NNE 05:58:01 10° ENE daylight
04 Aug - 07:41:35 10° NW 07:47:44 64° NNE 07:54:06 10° ESE daylight
04 Aug - 09:35:34 10° W 09:41:14 34° SSW 09:47:11 10° SE daylight
04 Aug - 11:34:13 10° SSW 11:35:39 11° SSW 11:37:06 10° S daylight
04 Aug - 17:17:59 10° SSW 17:23:15 19° SSE 17:28:33 10° ESE daylight
04 Aug - 19:09:54 10° SW 19:17:36 57° SSE 19:25:08 10° ENE visible
04 Aug - 21:04:04 10° W 21:11:29 46° NNW 21:18:35 10° NE visible
04 Aug - 23:01:53 10° NW 23:05:45 15° NNW 23:09:30 10° N night (unlit)
05 Aug - 04:50:51 10° N 04:52:44 11° NNE 04:54:36 10° NE visible
05 Aug - 06:40:54 10° NW 06:46:43 41° NNE 06:52:35 10° E daylight
05 Aug - 08:34:04 10° WNW 08:40:07 51° SSW 08:46:24 10° SE daylight
05 Aug - 10:30:31 10° SW 10:34:06 15° SSW 10:37:47 10° SSE daylight
05 Aug - 16:18:05 10° S 16:21:33 13° SSE 16:25:06 10° SE daylight
05 Aug - 18:08:58 10° SW 18:16:10 40° SSE 18:23:22 10° E daylight
05 Aug - 20:02:19 10° WSW 20:10:08 68° NNW 20:17:43 10° NE visible
05 Aug - 21:58:35 10° WNW 22:04:12 22° NNW 22:09:39 10° NNE visible
06 Aug - 05:40:26 10° NNW 05:45:37 27° NNE 05:50:46 10° E visible
06 Aug - 07:32:51 10° WNW 07:39:05 80° SSW 07:45:27 10° ESE daylight
06 Aug - 09:28:01 10° WSW 09:32:44 22° SSW 09:37:37 10° SSE daylight
06 Aug - 17:08:20 10° SSW 17:14:41 28° SSE 17:21:09 10° E daylight
06 Aug - 19:00:54 10° WSW 19:08:46 84° SSE 19:16:33 10° ENE visible
06 Aug - 20:55:59 10° W 21:02:44 32° NNW 21:09:17 10° NNE visible
06 Aug - 22:57:02 10° NNW 22:57:26 10° NNW 22:57:49 10° NNW night (unlit)
07 Aug - 04:40:13 10° NNW 04:44:24 18° NNE 04:48:30 10° ENE visible
07 Aug - 06:31:52 10° NW 06:38:05 66° NNE 06:44:18 10° ESE daylight
07 Aug - 08:26:03 10° W 08:31:31 32° SSW 08:37:10 10° SE daylight
07 Aug - 16:08:01 10° SSW 16:13:08 19° SSE 16:18:23 10° ESE daylight
07 Aug - 17:59:47 10° SW 18:07:23 59° SSE 18:15:04 10° ENE daylight
07 Aug - 19:53:52 10° W 20:01:19 46° NNW 20:08:38 10° NE visible
07 Aug - 21:51:34 10° NW 21:55:43 15° NNW 21:59:47 10° N visible
08 Aug - 03:40:29 10° N 03:43:00 12° NNE 03:45:28 10° NE visible
08 Aug - 05:31:05 10° NW 05:37:04 42° NNE 05:42:55 10° E visible
08 Aug - 07:24:26 10° WNW 07:30:27 49° SSW 07:36:31 10° SE daylight
08 Aug - 09:21:14 10° SW 09:24:21 14° SSW 09:27:31 10° S daylight
08 Aug - 15:08:17 10° S 15:11:30 13° SSE 15:14:47 10° SE daylight
08 Aug - 16:58:56 10° SW 17:05:59 40° SSE 17:13:13 10° E daylight
08 Aug - 18:52:11 10° WSW 18:59:55 67° NNW 19:07:40 10° NE visible
08 Aug - 20:48:21 10° WNW 20:54:06 22° NNW 20:59:45 10° NNE visible
09 Aug - 04:30:29 10° NNW 04:35:56 28° NNE 04:41:12 10° E visible
09 Aug - 06:23:07 10° WNW 06:29:26 78° SSW 06:35:41 10° SE daylight
09 Aug - 08:18:31 10° WSW 08:23:02 20° SSW 08:27:36 10° SSE daylight
09 Aug - 15:58:24 10° SSW 16:04:34 28° SSE 16:10:57 10° E daylight
09 Aug - 17:50:50 10° WSW 17:58:33 86° SSE 18:06:26 10° ENE daylight
09 Aug - 19:45:50 10° W 19:52:35 31° NNW 19:59:17 10° NNE visible
09 Aug - 21:45:58 10° NNW 21:47:24 11° NNW 21:48:50 10° N visible
10 Aug - 03:30:04 10° NNW 03:34:40 19° NNE 03:39:05 10° ENE visible
10 Aug - 05:22:01 10° NW 05:28:26 69° NNE 05:34:39 10° ESE visible
10 Aug - 07:16:25 10° W 07:21:51 31° SSW 07:27:19 10° SSE daylight
10 Aug - 14:58:14 10° SSW 15:03:05 19° SSE 15:08:08 10° ESE daylight
10 Aug - 16:49:49 10° SW 16:57:12 59° SSE 17:04:52 10° ENE daylight
10 Aug - 18:43:49 10° W 18:51:07 45° NNW 18:58:31 10° NE visible
10 Aug - 20:41:22 10° NW 20:45:38 15° NNW 20:49:52 10° NNE visible
